• In Latvia
  • List of Countries
  • For 7 days
  • Water Temperature
  • Satellite Maps
  • Weather Map
  • Weather Widgets
  • user-avatar
    Login

    Hourly Weather Ali Bayramli

    Today, 28 June, Wednesday

    Time Temperature Precipitation Wind Pressure Humidity
    00:00 +26°C° 0 mm 1 mps 756 mmHg 73%
    01:00 +25°C° 0 mm 1 mps 756 mmHg 75%
    02:00 +25°C° 0 mm 1 mps 756 mmHg 76%
    03:00 +25°C° 0 mm 1 mps 756 mmHg 77%
    04:00 +25°C° 0 mm 1 mps 756 mmHg 75%
    05:00 +26°C° 0 mm 1 mps 756 mmHg 73%
    06:00 +27°C° 0 mm 1 mps 756 mmHg 71%
    07:00 +28°C° 0 mm 1 mps 756 mmHg 64%
    08:00 +30°C° 0 mm 2 mps 756 mmHg 58%
    09:00 +31°C° 0 mm 2 mps 756 mmHg 51%
    10:00 +32°C° 0 mm 2 mps 756 mmHg 46%
    11:00 +35°C° 0 mm 3 mps 755 mmHg 40%
    12:00 +36°C° 0 mm 4 mps 755 mmHg 35%
    13:00 +37°C° 0 mm 5 mps 755 mmHg 33%
    14:00 +37°C° 0 mm 5 mps 754 mmHg 32%
    15:00 +38°C° 0 mm 6 mps 754 mmHg 30%
    16:00 +36°C° 0 mm 6 mps 754 mmHg 31%
    17:00 +35°C° 0 mm 6 mps 754 mmHg 32%
    18:00 +34°C° 0 mm 6 mps 753 mmHg 33%
    19:00 +33°C° 0 mm 5 mps 754 mmHg 36%
    20:00 +30°C° 0 mm 4 mps 754 mmHg 38%
    21:00 +29°C° 0 mm 3 mps 754 mmHg 41%
    22:00 +29°C° 0 mm 2 mps 754 mmHg 41%
    23:00 +28°C° 0 mm 2 mps 754 mmHg 40%

    Tomorrow, 29 June, Thursday

    Time Temperature Precipitation Wind Pressure Humidity
    00:00 +28°C° 0 mm 2 mps 754 mmHg 40%
    01:00 +27°C° 0 mm 2 mps 754 mmHg 41%
    02:00 +27°C° 0 mm 2 mps 754 mmHg 42%
    03:00 +26°C° 0 mm 2 mps 754 mmHg 42%
    04:00 +27°C° 0 mm 2 mps 754 mmHg 42%
    05:00 +28°C° 0 mm 2 mps 754 mmHg 41%
    06:00 +28°C° 0 mm 3 mps 754 mmHg 40%
    07:00 +30°C° 0 mm 3 mps 754 mmHg 35%
    08:00 +33°C° 0 mm 3 mps 754 mmHg 29%
    09:00 +35°C° 0 mm 3 mps 754 mmHg 24%
    10:00 +36°C° 0 mm 3 mps 754 mmHg 21%
    11:00 +38°C° 0 mm 3 mps 754 mmHg 19%
    12:00 +39°C° 0 mm 3 mps 754 mmHg 16%
    13:00 +40°C° 0 mm 4 mps 753 mmHg 16%
    14:00 +41°C° 0 mm 5 mps 753 mmHg 15%
    15:00 +41°C° 0 mm 6 mps 753 mmHg 14%
    16:00 +40°C° 0 mm 6 mps 753 mmHg 15%
    17:00 +39°C° 0 mm 6 mps 753 mmHg 16%
    18:00 +36°C° 0 mm 7 mps 752 mmHg 17%
    19:00 +35°C° 0 mm 6 mps 753 mmHg 19%
    20:00 +33°C° 0 mm 5 mps 753 mmHg 21%
    21:00 +32°C° 0 mm 5 mps 753 mmHg 24%
    22:00 +30°C° 0 mm 5 mps 753 mmHg 25%
    23:00 +29°C° 0 mm 4 mps 754 mmHg 27%

    Day after tomorrow, 30 June, Friday

    Time Temperature Precipitation Wind Pressure Humidity
    00:00 +29°C° 0 mm 4 mps 754 mmHg 28%
    01:00 +28°C° 0 mm 4 mps 753 mmHg 29%
    02:00 +28°C° 0 mm 4 mps 753 mmHg 30%
    03:00 +27°C° 0 mm 4 mps 753 mmHg 31%
    04:00 +28°C° 0 mm 4 mps 753 mmHg 30%
    05:00 +28°C° 0 mm 4 mps 753 mmHg 29%
    06:00 +29°C° 0 mm 4 mps 754 mmHg 29%
    07:00 +32°C° 0 mm 4 mps 754 mmHg 25%
    08:00 +34°C° 0 mm 5 mps 754 mmHg 22%
    09:00 +36°C° 0 mm 6 mps 754 mmHg 18%
    10:00 +38°C° 0 mm 6 mps 754 mmHg 17%
    11:00 +40°C° 0 mm 6 mps 754 mmHg 17%
    12:00 +41°C° 0 mm 6 mps 754 mmHg 16%
    13:00 +41°C° 0 mm 7 mps 754 mmHg 17%
    14:00 +40°C° 0 mm 8 mps 753 mmHg 18%
    15:00 +40°C° 0 mm 10 mps 753 mmHg 19%
    16:00 +39°C° 0 mm 10 mps 753 mmHg 20%
    17:00 +38°C° 0 mm 10 mps 754 mmHg 22%
    18:00 +37°C° 0 mm 10 mps 754 mmHg 23%
    19:00 +35°C° 0 mm 9 mps 754 mmHg 25%
    20:00 +33°C° 0 mm 9 mps 755 mmHg 26%
    21:00 +32°C° 0 mm 9 mps 755 mmHg 27%
    22:00 +32°C° 0 mm 8 mps 755 mmHg 28%
    23:00 +30°C° 0 mm 7 mps 755 mmHg 28%

    1 July, Saturday

    Time Temperature Precipitation Wind Pressure Humidity
    00:00 +29°C° 0 mm 7 mps 755 mmHg 29%
    01:00 +29°C° 0 mm 7 mps 755 mmHg 29%
    02:00 +29°C° 0 mm 7 mps 755 mmHg 29%
    03:00 +28°C° 0 mm 6 mps 755 mmHg 29%
    04:00 +29°C° 0 mm 6 mps 755 mmHg 29%
    05:00 +29°C° 0 mm 6 mps 756 mmHg 29%
    06:00 +30°C° 0 mm 5 mps 756 mmHg 29%
    07:00 +32°C° 0 mm 6 mps 756 mmHg 26%
    08:00 +34°C° 0 mm 6 mps 756 mmHg 23%
    09:00 +36°C° 0 mm 7 mps 756 mmHg 21%
    10:00 +38°C° 0 mm 7 mps 756 mmHg 20%
    11:00 +39°C° 0 mm 7 mps 756 mmHg 19%
    12:00 +40°C° 0 mm 8 mps 756 mmHg 18%
    13:00 +40°C° 0 mm 8 mps 756 mmHg 18%
    14:00 +40°C° 0 mm 8 mps 756 mmHg 19%
    15:00 +40°C° 0 mm 9 mps 756 mmHg 19%
    16:00 +39°C° 0 mm 8 mps 756 mmHg 20%
    17:00 +38°C° 0 mm 8 mps 756 mmHg 21%
    18:00 +36°C° 0 mm 7 mps 756 mmHg 22%
    19:00 +35°C° 0 mm 6 mps 756 mmHg 25%
    20:00 +33°C° 0 mm 5 mps 757 mmHg 29%
    21:00 +32°C° 0 mm 4 mps 757 mmHg 32%
    22:00 +30°C° 0 mm 3 mps 757 mmHg 36%
    23:00 +29°C° 0 mm 3 mps 757 mmHg 40%

    2 July, Sunday

    Time Temperature Precipitation Wind Pressure Humidity
    00:00 +28°C° 0 mm 2 mps 757 mmHg 43%
    01:00 +28°C° 0 mm 2 mps 757 mmHg 44%
    02:00 +27°C° 0 mm 2 mps 757 mmHg 45%
    03:00 +27°C° 0 mm 2 mps 756 mmHg 46%
    04:00 +27°C° 0 mm 2 mps 757 mmHg 44%
    05:00 +28°C° 0 mm 2 mps 757 mmHg 42%
    06:00 +29°C° 0 mm 2 mps 757 mmHg 39%
    07:00 +31°C° 0 mm 2 mps 757 mmHg 34%
    08:00 +34°C° 0 mm 2 mps 757 mmHg 29%
    09:00 +36°C° 0 mm 2 mps 757 mmHg 24%
    10:00 +38°C° 0 mm 3 mps 756 mmHg 22%
    11:00 +39°C° 0 mm 3 mps 756 mmHg 20%
    12:00 +40°C° 0 mm 3 mps 756 mmHg 18%
    13:00 +42°C° 0 mm 4 mps 755 mmHg 17%
    14:00 +42°C° 0 mm 5 mps 755 mmHg 17%
    15:00 +42°C° 0 mm 6 mps 754 mmHg 16%
    16:00 +41°C° 0 mm 6 mps 754 mmHg 19%
    17:00 +40°C° 0 mm 5 mps 754 mmHg 21%
    18:00 +37°C° 0 mm 5 mps 754 mmHg 23%
    19:00 +35°C° 0 mm 4 mps 754 mmHg 29%
    20:00 +33°C° 0 mm 3 mps 755 mmHg 34%
    21:00 +30°C° 0 mm 2 mps 755 mmHg 39%
    22:00 +30°C° 0 mm 2 mps 754 mmHg 41%
    23:00 +29°C° 0 mm 2 mps 754 mmHg 42%

    3 July, Monday

    Time Temperature Precipitation Wind Pressure Humidity
    00:00 +28°C° 0 mm 1 mps 754 mmHg 44%
    01:00 +28°C° 0 mm 1 mps 754 mmHg 44%
    02:00 +28°C° 0 mm 2 mps 754 mmHg 45%
    03:00 +28°C° 0 mm 2 mps 753 mmHg 45%
    04:00 +28°C° 0 mm 2 mps 753 mmHg 44%
    05:00 +29°C° 0 mm 1 mps 754 mmHg 44%
    06:00 +30°C° 0 mm 1 mps 754 mmHg 43%
    07:00 +31°C° 0 mm 1 mps 754 mmHg 39%
    08:00 +33°C° 0 mm 1 mps 754 mmHg 34%
    09:00 +35°C° 0 mm 1 mps 753 mmHg 29%
    10:00 +37°C° 0 mm 2 mps 753 mmHg 27%
    11:00 +39°C° 0 mm 2 mps 753 mmHg 25%
    12:00 +40°C° 0 mm 3 mps 752 mmHg 22%
    13:00 +41°C° 0 mm 4 mps 752 mmHg 22%
    14:00 +42°C° 0 mm 5 mps 751 mmHg 21%
    15:00 +42°C° 0 mm 5 mps 751 mmHg 20%
    16:00 +41°C° 0 mm 5 mps 751 mmHg 23%
    17:00 +40°C° 0 mm 5 mps 751 mmHg 25%
    18:00 +37°C° 0 mm 5 mps 750 mmHg 27%
    19:00 +35°C° 0 mm 4 mps 751 mmHg 31%
    20:00 +34°C° 0 mm 3 mps 751 mmHg 36%
    21:00 +31°C° 0 mm 2 mps 751 mmHg 40%
    22:00 +30°C° 0 mm 2 mps 751 mmHg 42%
    23:00 +30°C° 0 mm 1 mps 751 mmHg 43%
    Show more